This demonstration page uses our WeatherBlox Daily Observations layout. Learn more.

Hourly Observations for October 28, 2018

Temp ( °F °C ) Dew Point ( °F °C ) Humidity (%) Winds ( mph kmh ) Pressure ( in mb ) Visibility ( mi km ) Precip ( " mm )
12:15 am 00:15 Clear 52 11.2 43 6.2 72 72 N 12 19 30.03 1017 10 16.0934 0 0
12:35 am 00:35 Clear 52 11.3 43 6.2 71 71 N 14 22 30.03 1017 10 16.0934 0 0
12:55 am 00:55 Partly Cloudy 53 11.5 43 6.2 70 70 N 15 24 30.03 1017 10 16.0934 0 0
1:15 am 01:15 Partly Cloudy 53 11.6 43 6 69 69 N 13 20 30.06 1018 10 16.0934 0 0
1:35 am 01:35 Clear 53 11.5 42 5.6 67 67 NNW 12 19 30.06 1018 10 16.0934 0 0
1:55 am 01:55 Clear 52 11.1 41 5 66 66 NNW 13 20 30.09 1019 10 16.0934 0 0
2:15 am 02:15 Clear 51 10.3 40 4.6 68 68 NNW 12 19 30.09 1019 10 16.0934 0 0
2:35 am 02:35 Clear 50 10 40 4.2 68 68 NNW 13 20 30.12 1020 10 16.0934 0 0
2:55 am 02:55 Clear 49 9.3 39 4.1 70 70 N 10 17 30.12 1020 10 16.0934 0 0
3:15 am 03:15 Clear 47 8.6 38 3.6 71 71 NNW 10 17 30.15 1021 10 16.0934 0 0
3:35 am 03:35 Clear 46 8 38 3.1 71 71 NNW 8 13 30.15 1021 10 16.0934 0 0
3:55 am 03:55 Clear 45 7.3 37 2.5 72 72 N 8 13 30.15 1021 10 16.0934 0 0
4:15 am 04:15 Clear 45 7 37 2.5 73 73 N 9 15 30.18 1022 10 16.0934 0 0
4:35 am 04:35 Clear 44 6.7 36 2.2 73 73 NNW 8 13 30.18 1022 10 16.0934 0 0
4:55 am 04:55 Clear 43 6 36 2.2 77 77 NW 7 11 30.18 1022 10 16.0934 0 0
5:15 am 05:15 Clear 40 4.5 35 1.7 82 82 WNW 7 11 30.18 1022 10 16.0934 0 0
5:35 am 05:35 Clear 40 4.5 35 1.5 81 81 WNW 6 9 30.18 1022 10 16.0934 0 0
5:55 am 05:55 Clear 40 4.3 34 1.2 80 80 WNW 8 13 30.18 1022 10 16.0934 0 0
6:15 am 06:15 Clear 38 3.5 33 0.7 82 82 WNW 7 11 30.21 1023 10 16.0934 0 0
6:35 am 06:35 Clear 37 3 33 0.5 84 84 WNW 7 11 30.21 1023 10 16.0934 0 0
6:55 am 06:55 Clear 38 3.1 33 0.6 84 84 WNW 8 13 30.21 1023 10 16.0934 0 0
7:15 am 07:15 Clear 37 2.8 33 0.5 85 85 WNW 8 13 30.21 1023 10 16.0934 0 0
7:35 am 07:35 Clear 38 3.2 33 0.5 83 83 WNW 7 11 30.21 1023 10 16.0934 0 0
7:55 am 07:55 Clear 36 2.1 32 0 86 86 NW 7 11 30.21 1023 10 16.0934 0 0
8:15 am 08:15 Sunny 35 1.5 32 0 90 90 WNW 6 9 30.21 1023 10 16.0934 0 0
8:35 am 08:35 Sunny 37 2.6 33 0.8 88 88 W 8 13 30.21 1023 10 16.0934 0 0
8:55 am 08:55 Sunny 39 3.8 34 1.3 84 84 W 9 15 30.24 1024 10 16.0934 0 0
9:15 am 09:15 Sunny 41 5.1 36 2 81 81 NW 7 11 30.21 1023 10 16.0934 0 0
9:35 am 09:35 Sunny 44 6.4 37 2.6 77 77 NW 5 7 30.21 1023 10 16.0934 0 0
9:55 am 09:55 Sunny 46 7.6 37 2.8 72 72 WNW 5 7 30.18 1022 10 16.0934 0 0
10:15 am 10:15 Sunny 49 9.5 38 3.1 65 65 W 7 11 30.18 1022 10 16.0934 0 0
10:35 am 10:35 Sunny 52 10.9 38 3.2 59 59 W 8 13 30.21 1023 10 16.0934 0 0
10:55 am 10:55 Sunny 54 12.4 37 3 53 53 WNW 9 15 30.18 1022 10 16.0934 0 0
11:15 am 11:15 Sunny 56 13.3 36 2.4 48 48 W 8 13 30.18 1022 10 16.0934 0 0
11:35 am 11:35 Sunny 58 14.3 36 2.2 44 44 WNW 7 11 30.12 1020 10 16.0934 0 0
11:55 am 11:55 Sunny 59 15.2 35 1.9 41 41 NNW 7 11 30.12 1020 10 16.0934 0 0
12:15 pm 12:15 Sunny 60 15.8 35 1.8 39 39 NNW 6 9 30.12 1020 10 16.0934 0 0
12:35 pm 12:35 Sunny 62 16.5 33 0.5 34 34 NW 7 11 30.12 1020 10 16.0934 0 0
12:55 pm 12:55 Sunny 63 17 34 0.9 34 34 NNW 6 9 30.12 1020 10 16.0934 0 0
1:15 pm 13:15 Sunny 63 17.3 33 0.3 32 32 WNW 6 9 30.06 1018 10 16.0934 0 0
1:35 pm 13:35 Sunny 64 17.5 31 -0.3 30 30 W 5 7 30.06 1018 10 16.0934 0 0
1:55 pm 13:55 Sunny 64 17.8 32 0.2 31 31 SW 3 6 30.06 1018 10 16.0934 0 0
2:15 pm 14:15 Sunny 65 18.2 33 0.4 30 30 NNW 5 7 30.06 1018 10 16.0934 0 0
2:35 pm 14:35 Sunny 65 18.2 32 -0.1 29 29 Calm 30.06 1018 10 16.0934 0 0
2:55 pm 14:55 Sunny 65 18.5 33 0.4 30 30 WSW 5 7 30.06 1018 10 16.0934 0 0
3:15 pm 15:15 Sunny 65 18.6 33 0.4 30 30 WSW 5 7 30.03 1017 10 16.0934 0 0
3:35 pm 15:35 Sunny 66 18.7 34 0.9 30 30 W 9 15 30.03 1017 10 16.0934 0 0
3:55 pm 15:55 Sunny 66 18.7 34 0.9 30 30 W 6 9 30.03 1017 10 16.0934 0 0
4:15 pm 16:15 Sunny 66 18.7 34 1 31 31 SSW 9 15 30.03 1017 10 16.0934 0 0
4:35 pm 16:35 Sunny 65 18.4 34 1.1 31 31 WSW 9 15 30.03 1017 10 16.0934 0 0
4:55 pm 16:55 Sunny 65 18.1 33 0.8 31 31 SW 8 13 30.03 1017 10 16.0934 0 0
5:15 pm 17:15 Sunny 65 18.1 32 0.2 30 30 SW 7 11 30.03 1017 10 16.0934 0 0
5:35 pm 17:35 Sunny 64 17.7 33 0.8 32 32 SW 5 7 30.03 1017 10 16.0934 0 0
5:55 pm 17:55 Sunny 64 17.5 33 0.7 32 32 SSW 5 7 30.03 1017 10 16.0934 0 0
6:15 pm 18:15 Sunny 62 16.8 34 0.9 34 34 S 3 6 30.06 1018 10 16.0934 0 0
6:35 pm 18:35 Sunny 60 15.7 33 0.8 37 37 S 3 6 30.06 1018 10 16.0934 0 0
6:55 pm 18:55 Clear 57 13.8 33 0.3 40 40 S 5 7 30.06 1018 10 16.0934 0 0
7:15 pm 19:15 Clear 55 13 33 0.4 42 42 S 6 9 30.06 1018 10 16.0934 0 0
7:35 pm 19:35 Clear 54 12.3 33 0.7 45 45 S 6 9 30.09 1019 10 16.0934 0 0
7:55 pm 19:55 Clear 53 11.4 33 0.5 47 47 S 5 7 30.09 1019 10 16.0934 0 0
8:15 pm 20:15 Clear 47 8.6 34 1.1 60 60 S 6 9 30.12 1020 10 16.0934 0 0
8:35 pm 20:35 Clear 51 10.4 33 0.5 51 51 S 8 13 30.09 1019 10 16.0934 0 0
8:55 pm 20:55 Clear 47 8.3 33 0.8 60 60 S 6 9 30.12 1020 10 16.0934 0 0
9:15 pm 21:15 Clear 48 9 34 1 58 58 S 7 11 30.12 1020 10 16.0934 0 0
9:35 pm 21:35 Clear 49 9.2 34 1 57 57 S 8 13 30.12 1020 10 16.0934 0 0
9:55 pm 21:55 Clear 49 9.3 34 1.1 57 57 S 9 15 30.09 1019 10 16.0934 0 0
10:15 pm 22:15 Clear 47 8.6 35 1.4 61 61 S 7 11 30.09 1019 10 16.0934 0 0
10:35 pm 22:35 Clear 47 8.5 35 1.5 62 62 S 6 9 30.09 1019 10 16.0934 0 0
10:55 pm 22:55 Clear 45 7.2 35 1.5 67 67 S 7 11 30.09 1019 10 16.0934 0 0
11:15 pm 23:15 Clear 48 8.7 34 1.3 60 60 S 7 11 30.09 1019 10 16.0934 0 0
11:35 pm 23:35 Clear 48 8.7 34 1.3 60 60 S 8 13 30.09 1019 10 16.0934 0 0
11:55 pm 23:55 Clear 48 8.8 34 1.2 59 59 S 10 17 30.09 1019 10 16.0934 0 0

Powered by AerisWeather